Time,TemperatureF,DewpointF,PressureIn,WindDirection,WindDirectionDegrees,WindSpeedMPH,WindSpeedGustMPH,Humidity,HourlyPrecipIn,Conditions,Clouds,dailyrainin,SoftwareType,DateUTC
2013-05-23 00:03:00,48.0,47.0,29.91,ENE,61,0.0,0.0,98,0.01,,,0.28,,2013-05-23 04:03:00,
2013-05-23 00:12:00,48.0,47.0,29.91,ENE,61,0.0,0.0,98,0.01,,,0.28,,2013-05-23 04:12:00,
2013-05-23 00:22:00,47.0,46.0,29.91,NNW,338,0.0,3.0,98,0.01,,,0.28,,2013-05-23 04:22:00,
2013-05-23 00:33:00,47.0,46.0,29.88,NE,50,3.0,10.0,98,0.01,,,0.28,,2013-05-23 04:33:00,
2013-05-23 00:43:00,47.0,46.0,29.88,NE,50,3.0,10.0,98,0.01,,,0.28,,2013-05-23 04:43:00,
2013-05-23 00:52:00,47.0,46.0,29.88,NE,50,3.0,10.0,98,0.01,,,0.28,,2013-05-23 04:52:00,
2013-05-23 01:02:00,47.0,46.0,29.88,NE,50,3.0,10.0,98,0.01,,,0.28,,2013-05-23 05:02:00,
2013-05-23 01:32:00,47.0,46.0,29.89,SSE,168,0.0,4.0,98,0.00,,,0.28,,2013-05-23 05:32:00,
2013-05-23 01:43:00,47.0,46.0,29.90,North,360,1.0,5.0,98,0.00,,,0.28,,2013-05-23 05:43:00,
2013-05-23 01:52:00,47.0,46.0,29.90,North,360,1.0,5.0,98,0.00,,,0.28,,2013-05-23 05:52:00,
2013-05-23 02:02:00,47.0,46.0,29.90,ENE,64,0.0,5.0,98,0.00,,,0.28,,2013-05-23 06:02:00,
2013-05-23 02:12:00,47.0,46.0,29.90,ENE,64,0.0,5.0,98,0.00,,,0.28,,2013-05-23 06:12:00,
2013-05-23 02:21:00,47.0,46.0,29.88,NE,53,3.0,8.0,98,0.00,,,0.28,,2013-05-23 06:21:00,
2013-05-23 02:32:00,47.0,46.0,29.88,North,5,0.0,5.0,98,0.00,,,0.28,,2013-05-23 06:32:00,
2013-05-23 02:42:00,47.0,46.0,29.88,North,5,0.0,5.0,98,0.00,,,0.28,,2013-05-23 06:42:00,
2013-05-23 02:52:00,47.0,46.0,29.88,ENE,67,0.0,4.0,98,0.00,,,0.25,,2013-05-23 06:52:00,
2013-05-23 03:02:00,47.0,46.0,29.88,ENE,57,0.0,4.0,98,0.00,,,0.25,,2013-05-23 07:02:00,
2013-05-23 03:11:00,47.0,46.0,29.88,ENE,57,0.0,4.0,98,0.00,,,0.25,,2013-05-23 07:11:00,
2013-05-23 03:22:00,47.0,46.0,29.87,ENE,57,0.0,0.0,98,0.00,,,0.25,,2013-05-23 07:22:00,
2013-05-23 03:32:00,47.0,46.0,29.86,NE,39,0.0,1.0,98,0.00,,,0.25,,2013-05-23 07:32:00,
2013-05-23 03:42:00,47.0,46.0,29.86,NE,39,0.0,1.0,98,0.00,,,0.25,,2013-05-23 07:42:00,
2013-05-23 03:59:00,47.0,46.0,29.86,NE,40,0.0,6.0,98,0.00,,,0.25,,2013-05-23 07:59:00,
2013-05-23 04:11:00,47.0,46.0,29.86,NE,40,0.0,0.0,98,0.00,,,0.25,,2013-05-23 08:11:00,
2013-05-23 04:22:00,47.0,46.0,29.85,NE,40,0.0,1.0,98,0.00,,,0.25,,2013-05-23 08:22:00,
2013-05-23 04:32:00,47.0,46.0,29.84,NE,50,1.0,5.0,98,0.00,,,0.25,,2013-05-23 08:32:00,
2013-05-23 04:42:00,47.0,46.0,29.84,NE,50,1.0,5.0,98,0.00,,,0.25,,2013-05-23 08:42:00,
2013-05-23 04:51:00,47.0,46.0,29.85,NE,48,0.0,3.0,98,0.00,,,0.25,,2013-05-23 08:51:00,
2013-05-23 05:02:00,47.0,46.0,29.85,NE,48,0.0,0.0,98,0.00,,,0.25,,2013-05-23 09:02:00,
2013-05-23 05:11:00,47.0,46.0,29.85,NE,48,0.0,0.0,98,0.00,,,0.25,,2013-05-23 09:11:00,
2013-05-23 05:22:00,47.0,46.0,29.86,NE,43,0.0,1.0,98,0.00,,,0.25,,2013-05-23 09:22:00,
2013-05-23 05:33:00,47.0,46.0,29.85,NE,43,0.0,1.0,98,0.00,,,0.25,,2013-05-23 09:33:00,
2013-05-23 05:42:00,47.0,46.0,29.85,NE,43,0.0,1.0,98,0.00,,,0.25,,2013-05-23 09:42:00,
2013-05-23 05:53:00,47.0,46.0,29.85,WSW,238,0.0,2.0,98,0.00,,,0.25,,2013-05-23 09:53:00,
2013-05-23 06:03:00,47.0,46.0,29.84,SSE,148,0.0,2.0,98,0.00,,,0.25,,2013-05-23 10:03:00,
2013-05-23 06:13:00,47.0,46.0,29.84,SSE,148,0.0,2.0,98,0.00,,,0.25,,2013-05-23 10:13:00,
2013-05-23 06:22:00,48.0,47.0,29.84,NNE,32,0.0,2.0,98,0.00,,,0.25,,2013-05-23 10:22:00,
2013-05-23 06:32:00,48.0,47.0,29.85,NE,41,0.0,3.0,98,0.00,,,0.25,,2013-05-23 10:32:00,
2013-05-23 06:42:00,48.0,47.0,29.85,NE,41,0.0,3.0,98,0.00,,,0.25,,2013-05-23 10:42:00,
2013-05-23 06:52:00,48.0,47.0,29.85,NE,41,0.0,2.0,98,0.00,,,0.19,,2013-05-23 10:52:00,
2013-05-23 07:02:00,48.0,48.0,29.86,WSW,250,2.0,4.0,99,0.00,,,0.19,,2013-05-23 11:02:00,
2013-05-23 07:11:00,48.0,48.0,29.86,WSW,250,2.0,4.0,99,0.00,,,0.19,,2013-05-23 11:11:00,
2013-05-23 07:22:00,48.0,48.0,29.85,NNE,26,0.0,1.0,99,0.00,,,0.19,,2013-05-23 11:22:00,
2013-05-23 07:32:00,48.0,48.0,29.85,NNE,26,0.0,0.0,99,0.00,,,0.19,,2013-05-23 11:32:00,
2013-05-23 07:42:00,48.0,48.0,29.85,NNE,26,0.0,0.0,99,0.00,,,0.19,,2013-05-23 11:42:00,
2013-05-23 07:52:00,48.0,48.0,29.84,South,180,0.0,2.0,99,0.00,,,0.12,,2013-05-23 11:52:00,
2013-05-23 08:01:00,49.0,49.0,29.85,SSE,167,0.0,0.0,99,0.00,,,0.12,,2013-05-23 12:01:00,
2013-05-23 08:12:00,49.0,49.0,29.85,SSE,167,0.0,0.0,99,0.00,,,0.12,,2013-05-23 12:12:00,
2013-05-23 08:21:00,49.0,49.0,29.85,SSE,159,0.0,2.0,99,0.00,,,0.12,,2013-05-23 12:21:00,
2013-05-23 08:32:00,49.0,49.0,29.85,SSW,192,0.0,0.0,99,0.00,,,0.12,,2013-05-23 12:32:00,
2013-05-23 08:42:00,49.0,49.0,29.85,SSW,192,0.0,0.0,99,0.00,,,0.12,,2013-05-23 12:42:00,
2013-05-23 08:52:00,49.0,49.0,29.85,NE,53,0.0,0.0,99,0.00,,,0.09,,2013-05-23 12:52:00,
2013-05-23 09:02:00,49.0,49.0,29.85,NE,53,0.0,0.0,99,0.00,,,0.09,,2013-05-23 13:02:00,
2013-05-23 09:11:00,49.0,49.0,29.85,NE,53,0.0,0.0,99,0.00,,,0.09,,2013-05-23 13:11:00,
2013-05-23 09:22:00,49.0,49.0,29.85,NE,53,0.0,0.0,99,0.00,,,0.09,,2013-05-23 13:22:00,
2013-05-23 09:32:00,49.0,49.0,29.85,NE,53,0.0,0.0,99,0.00,,,0.09,,2013-05-23 13:32:00,
2013-05-23 09:42:00,49.0,49.0,29.85,NE,53,0.0,0.0,99,0.00,,,0.09,,2013-05-23 13:42:00,
2013-05-23 09:52:00,49.0,49.0,29.85,NE,53,0.0,0.0,99,0.00,,,0.02,,2013-05-23 13:52:00,
2013-05-23 10:02:00,49.0,49.0,29.84,NE,53,0.0,0.0,99,0.00,,,0.02,,2013-05-23 14:02:00,
2013-05-23 10:11:00,49.0,49.0,29.84,NE,53,0.0,0.0,99,0.00,,,0.02,,2013-05-23 14:11:00,
2013-05-23 10:21:00,49.0,49.0,29.83,NE,41,0.0,0.0,99,0.00,,,0.02,,2013-05-23 14:21:00,
2013-05-23 10:32:00,50.0,50.0,29.83,NE,41,3.0,4.0,99,0.00,,,0.02,,2013-05-23 14:32:00,
2013-05-23 10:42:00,50.0,50.0,29.83,NE,41,3.0,4.0,99,0.00,,,0.02,,2013-05-23 14:42:00,
2013-05-23 10:52:00,51.0,51.0,29.83,NE,53,2.0,5.0,99,0.00,,,0.01,,2013-05-23 14:52:00,
2013-05-23 11:01:00,51.0,50.0,29.83,ENE,59,3.0,6.0,98,0.00,,,0.01,,2013-05-23 15:01:00,
2013-05-23 11:11:00,51.0,50.0,29.83,ENE,59,3.0,6.0,98,0.00,,,0.01,,2013-05-23 15:11:00,
2013-05-23 11:22:00,53.0,52.0,29.83,NNW,339,2.0,5.0,98,0.00,,,0.01,,2013-05-23 15:22:00,
2013-05-23 11:33:00,53.0,52.0,29.83,NE,36,2.0,5.0,97,0.00,,,0.01,,2013-05-23 15:33:00,
2013-05-23 11:42:00,53.0,52.0,29.83,NE,36,2.0,5.0,97,0.00,,,0.01,,2013-05-23 15:42:00,
2013-05-23 11:53:00,54.0,53.0,29.83,WNW,297,0.0,4.0,97,0.00,,,0.01,,2013-05-23 15:53:00,
2013-05-23 12:03:00,56.0,55.0,29.82,NE,55,2.0,6.0,95,0.00,,,0.01,,2013-05-23 16:03:00,
2013-05-23 12:12:00,56.0,55.0,29.82,NE,55,2.0,6.0,95,0.00,,,0.01,,2013-05-23 16:12:00,
2013-05-23 12:23:00,57.0,55.0,29.82,WNW,290,1.0,5.0,93,0.00,,,0.01,,2013-05-23 16:23:00,
2013-05-23 12:34:00,57.0,55.0,29.82,WNW,290,1.0,5.0,93,0.00,,,0.01,,2013-05-23 16:34:00,
2013-05-23 12:42:00,57.0,55.0,29.82,WNW,290,1.0,5.0,93,0.00,,,0.01,,2013-05-23 16:42:00,
2013-05-23 12:52:00,57.0,55.0,29.81,NE,39,1.0,5.0,92,0.00,,,0.01,,2013-05-23 16:52:00,
2013-05-23 13:03:00,56.0,54.0,29.80,NE,44,1.0,5.0,93,0.00,,,0.01,,2013-05-23 17:03:00,
2013-05-23 13:12:00,56.0,54.0,29.80,NE,44,1.0,5.0,93,0.00,,,0.01,,2013-05-23 17:12:00,
2013-05-23 13:23:00,56.0,54.0,29.81,NE,38,1.0,6.0,94,0.00,,,0.01,,2013-05-23 17:23:00,
2013-05-23 13:33:00,57.0,55.0,29.80,WNW,301,0.0,4.0,94,0.00,,,0.01,,2013-05-23 17:33:00,
2013-05-23 13:43:00,57.0,55.0,29.80,WNW,301,0.0,4.0,94,0.00,,,0.01,,2013-05-23 17:43:00,
2013-05-23 13:52:00,58.0,56.0,29.80,East,94,1.0,4.0,93,0.00,,,0.01,,2013-05-23 17:52:00,
2013-05-23 14:01:00,58.0,56.0,29.81,ENE,57,1.0,7.0,92,0.00,,,0.01,,2013-05-23 18:01:00,
2013-05-23 14:11:00,58.0,56.0,29.81,ENE,57,1.0,7.0,92,0.00,,,0.01,,2013-05-23 18:11:00,
2013-05-23 14:22:00,57.0,55.0,29.80,South,191,0.0,3.0,94,0.00,,,0.01,,2013-05-23 18:22:00,
2013-05-23 14:32:00,57.0,55.0,29.79,WNW,298,0.0,3.0,94,0.00,,,0.01,,2013-05-23 18:32:00,
2013-05-23 14:42:00,57.0,55.0,29.79,WNW,298,0.0,3.0,94,0.00,,,0.01,,2013-05-23 18:42:00,
2013-05-23 14:52:00,56.0,55.0,29.79,SW,229,1.0,6.0,95,0.00,,,0.01,,2013-05-23 18:52:00,
2013-05-23 15:01:00,56.0,55.0,29.78,SW,232,0.0,3.0,96,0.00,,,0.01,,2013-05-23 19:01:00,
2013-05-23 15:11:00,56.0,55.0,29.78,SW,232,0.0,3.0,96,0.00,,,0.01,,2013-05-23 19:11:00,
2013-05-23 15:21:00,56.0,55.0,29.78,WSW,252,0.0,6.0,96,0.00,,,0.01,,2013-05-23 19:21:00,
2013-05-23 15:32:00,55.0,54.0,29.78,SW,220,1.0,5.0,96,0.00,,,0.01,,2013-05-23 19:32:00,
2013-05-23 15:42:00,55.0,54.0,29.77,SE,145,0.0,5.0,97,0.00,,,0.01,,2013-05-23 19:42:00,
2013-05-23 15:52:00,55.0,54.0,29.77,SE,145,0.0,5.0,97,0.00,,,0.01,,2013-05-23 19:52:00,
2013-05-23 16:02:00,55.0,54.0,29.78,West,260,0.0,6.0,97,0.00,,,0.01,,2013-05-23 20:02:00,
2013-05-23 16:11:00,55.0,54.0,29.78,West,260,0.0,6.0,97,0.00,,,0.01,,2013-05-23 20:11:00,
2013-05-23 16:21:00,55.0,54.0,29.77,SSW,202,1.0,7.0,97,0.00,,,0.01,,2013-05-23 20:21:00,
2013-05-23 16:32:00,55.0,54.0,29.78,South,189,1.0,8.0,98,0.00,,,0.01,,2013-05-23 20:32:00,
2013-05-23 16:42:00,55.0,54.0,29.78,South,189,1.0,8.0,98,0.00,,,0.01,,2013-05-23 20:42:00,
2013-05-23 16:52:00,55.0,54.0,29.78,WNW,286,0.0,5.0,98,0.00,,,0.01,,2013-05-23 20:52:00,
2013-05-23 17:01:00,54.0,53.0,29.78,South,177,0.0,4.0,98,0.00,,,0.01,,2013-05-23 21:01:00,
2013-05-23 17:11:00,54.0,53.0,29.78,South,177,0.0,4.0,98,0.00,,,0.01,,2013-05-23 21:11:00,
2013-05-23 17:22:00,54.0,53.0,29.78,WSW,246,0.0,2.0,98,0.00,,,0.01,,2013-05-23 21:22:00,
2013-05-23 17:32:00,54.0,53.0,29.79,WNW,300,0.0,4.0,98,0.00,,,0.01,,2013-05-23 21:32:00,
2013-05-23 17:43:00,54.0,53.0,29.79,WNW,300,0.0,4.0,98,0.00,,,0.01,,2013-05-23 21:43:00,
2013-05-23 17:53:00,54.0,53.0,29.79,East,80,0.0,3.0,98,0.00,,,0.01,,2013-05-23 21:53:00,
2013-05-23 18:03:00,54.0,53.0,29.78,NNW,344,0.0,1.0,98,0.00,,,0.01,,2013-05-23 22:03:00,
2013-05-23 18:12:00,54.0,53.0,29.78,NNW,344,0.0,1.0,98,0.00,,,0.01,,2013-05-23 22:12:00,
2013-05-23 18:22:00,56.0,56.0,29.78,SE,128,0.0,3.0,99,0.00,,,0.01,,2013-05-23 22:22:00,
2013-05-23 18:33:00,56.0,55.0,29.78,ENE,59,0.0,2.0,98,0.00,,,0.01,,2013-05-23 22:33:00,
2013-05-23 18:42:00,56.0,55.0,29.78,ENE,59,0.0,2.0,98,0.00,,,0.01,,2013-05-23 22:42:00,
2013-05-23 18:52:00,55.0,54.0,29.78,East,91,0.0,3.0,98,0.00,,,0.01,,2013-05-23 22:52:00,
2013-05-23 19:02:00,54.0,53.0,29.78,WNW,292,0.0,3.0,98,0.00,,,0.01,,2013-05-23 23:02:00,
2013-05-23 19:11:00,54.0,53.0,29.78,WNW,292,0.0,3.0,98,0.00,,,0.01,,2013-05-23 23:11:00,
2013-05-23 19:21:00,54.0,53.0,29.78,ESE,107,0.0,3.0,98,0.00,,,0.01,,2013-05-23 23:21:00,
2013-05-23 19:32:00,54.0,54.0,29.79,WSW,255,0.0,3.0,99,0.00,,,0.01,,2013-05-23 23:32:00,
2013-05-23 19:42:00,54.0,54.0,29.79,WSW,255,0.0,3.0,99,0.00,,,0.01,,2013-05-23 23:42:00,
2013-05-23 19:52:00,54.0,54.0,29.79,SSE,153,0.0,3.0,99,0.00,,,0.01,,2013-05-23 23:52:00,
2013-05-23 20:01:00,56.0,56.0,29.79,SSE,162,0.0,6.0,99,0.00,,,0.01,,2013-05-24 00:01:00,
2013-05-23 20:12:00,56.0,56.0,29.79,SSE,162,0.0,6.0,99,0.00,,,0.01,,2013-05-24 00:12:00,
2013-05-23 20:21:00,57.0,57.0,29.79,South,182,2.0,12.0,99,0.00,,,0.01,,2013-05-24 00:21:00,
2013-05-23 20:32:00,58.0,58.0,29.79,SSE,150,1.0,8.0,99,0.00,,,0.01,,2013-05-24 00:32:00,
2013-05-23 20:42:00,58.0,58.0,29.79,SSE,150,1.0,8.0,99,0.00,,,0.01,,2013-05-24 00:42:00,
2013-05-23 20:52:00,58.0,58.0,29.79,SW,232,1.0,6.0,99,0.00,,,0.01,,2013-05-24 00:52:00,
2013-05-23 21:01:00,58.0,58.0,29.79,WSW,237,3.0,8.0,99,0.00,,,0.01,,2013-05-24 01:01:00,
2013-05-23 21:12:00,58.0,58.0,29.79,WSW,237,3.0,8.0,99,0.00,,,0.01,,2013-05-24 01:12:00,
2013-05-23 21:22:00,58.0,58.0,29.79,SW,215,0.0,5.0,99,0.00,,,0.01,,2013-05-24 01:22:00,
2013-05-23 21:32:00,59.0,59.0,29.79,SSW,211,0.0,3.0,99,0.00,,,0.01,,2013-05-24 01:32:00,
2013-05-23 21:42:00,59.0,59.0,29.79,SSW,211,0.0,3.0,99,0.00,,,0.01,,2013-05-24 01:42:00,
2013-05-23 21:52:00,59.0,59.0,29.80,SW,221,2.0,8.0,99,0.00,,,0.01,,2013-05-24 01:52:00,
2013-05-23 22:02:00,59.0,59.0,29.79,South,175,1.0,11.0,99,0.00,,,0.01,,2013-05-24 02:02:00,
2013-05-23 22:12:00,59.0,59.0,29.79,South,175,1.0,11.0,99,0.00,,,0.01,,2013-05-24 02:12:00,
2013-05-23 22:22:00,59.0,59.0,29.79,SSW,213,2.0,8.0,99,0.00,,,0.01,,2013-05-24 02:22:00,
2013-05-23 22:32:00,59.0,59.0,29.79,South,173,3.0,9.0,99,0.00,,,0.01,,2013-05-24 02:32:00,
2013-05-23 22:42:00,59.0,59.0,29.79,South,173,3.0,9.0,99,0.00,,,0.01,,2013-05-24 02:42:00,
2013-05-23 22:52:00,59.0,59.0,29.79,South,173,3.0,9.0,99,0.00,,,0.01,,2013-05-24 02:52:00,
2013-05-23 23:02:00,59.0,59.0,29.79,South,175,2.0,16.0,99,0.00,,,0.01,,2013-05-24 03:02:00,
2013-05-23 23:11:00,58.0,58.0,29.78,SSE,168,1.0,6.0,99,0.00,,,0.01,,2013-05-24 03:11:00,
2013-05-23 23:22:00,58.0,58.0,29.78,SSE,168,1.0,6.0,99,0.00,,,0.01,,2013-05-24 03:22:00,
2013-05-23 23:33:00,58.0,58.0,29.79,SW,216,1.0,7.0,99,0.00,,,0.01,,2013-05-24 03:33:00,
2013-05-23 23:42:00,58.0,58.0,29.79,SW,216,1.0,7.0,99,0.00,,,0.01,,2013-05-24 03:42:00,
2013-05-23 23:53:00,58.0,58.0,29.78,South,182,0.0,10.0,99,0.00,,,0.01,,2013-05-24 03:53:00,